Time,TemperatureF,DewpointF,PressureIn,WindDirection,WindDirectionDegrees,WindSpeedMPH,WindSpeedGustMPH,Humidity,HourlyPrecipIn,Conditions,Clouds,dailyrainin,SolarRadiationWatts/m^2,SoftwareType,DateUTC
2013-01-23 00:04:00,22.3,6.0,30.30,ESE,113,0.0,1.0,49,0.00,CLR,CLR,0.00,0.0,WeatherDisplay:10.37,2013-01-23 05:04:00,
2013-01-23 00:10:00,22.2,7.6,30.30,ESE,113,0.0,0.0,53,0.00,CLR,CLR,0.00,0.0,WeatherDisplay:10.37,2013-01-23 05:10:00,
2013-01-23 00:15:00,22.0,7.9,30.31,ESE,113,0.0,0.0,54,0.00,CLR,CLR,0.00,0.0,WeatherDisplay:10.37,2013-01-23 05:15:00,
2013-01-23 00:25:00,21.7,5.5,30.31,ESE,104,0.0,2.0,49,0.00,CLR,CLR,0.00,0.0,WeatherDisplay:10.37,2013-01-23 05:25:00,
2013-01-23 00:30:00,21.8,5.1,30.31,ESE,106,0.0,4.0,48,0.00,CLR,CLR,0.00,0.0,WeatherDisplay:10.37,2013-01-23 05:30:00,
2013-01-23 00:40:00,21.9,5.2,30.31,East,94,0.0,4.0,48,0.00,CLR,CLR,0.00,0.0,WeatherDisplay:10.37,2013-01-23 05:40:00,
2013-01-23 00:50:00,22.1,5.4,30.31,ESE,106,0.0,3.0,48,0.00,CLR,CLR,0.00,0.0,WeatherDisplay:10.37,2013-01-23 05:50:00,
2013-01-23 01:00:00,22.1,5.4,30.32,ESE,103,0.0,3.0,48,0.00,CLR,CLR,0.00,0.0,WeatherDisplay:10.37,2013-01-23 06:00:00,
2013-01-23 01:10:00,22.3,5.5,30.32,East,91,1.0,4.0,48,0.00,CLR,CLR,0.00,0.0,WeatherDisplay:10.37,2013-01-23 06:10:00,
2013-01-23 01:15:00,22.3,5.5,30.32,East,93,0.0,4.0,48,0.00,CLR,CLR,0.00,0.0,WeatherDisplay:10.37,2013-01-23 06:15:00,
2013-01-23 01:20:00,22.2,5.9,30.32,ESE,109,1.0,3.0,49,0.00,CLR,CLR,0.00,0.0,WeatherDisplay:10.37,2013-01-23 06:20:00,
2013-01-23 01:25:00,22.2,5.5,30.32,ESE,119,0.0,2.0,48,0.00,CLR,CLR,0.00,0.0,WeatherDisplay:10.37,2013-01-23 06:25:00,
2013-01-23 01:30:00,22.3,6.0,30.32,ESE,116,0.0,1.0,49,0.00,CLR,CLR,0.00,0.0,WeatherDisplay:10.37,2013-01-23 06:30:00,
2013-01-23 01:35:00,22.4,6.1,30.32,ESE,109,0.0,1.0,49,0.00,CLR,CLR,0.00,0.0,WeatherDisplay:10.37,2013-01-23 06:35:00,
2013-01-23 01:40:00,22.5,6.6,30.32,ESE,105,0.0,0.0,50,0.00,CLR,CLR,0.00,0.0,WeatherDisplay:10.37,2013-01-23 06:40:00,
2013-01-23 01:45:00,22.6,7.6,30.33,ESE,105,0.0,0.0,52,0.00,CLR,CLR,0.00,0.0,WeatherDisplay:10.37,2013-01-23 06:45:00,
2013-01-23 01:50:00,22.6,8.0,30.32,ESE,105,0.0,0.0,53,0.00,CLR,CLR,0.00,0.0,WeatherDisplay:10.37,2013-01-23 06:50:00,
2013-01-23 02:00:00,22.7,8.5,30.33,ESE,105,0.0,0.0,54,0.00,CLR,CLR,0.00,0.0,WeatherDisplay:10.37,2013-01-23 07:00:00,
2013-01-23 02:05:00,22.7,8.5,30.32,ESE,105,0.0,0.0,54,0.00,CLR,CLR,0.00,0.0,WeatherDisplay:10.37,2013-01-23 07:05:00,
2013-01-23 02:10:00,22.8,8.2,30.33,ESE,105,0.0,0.0,53,0.00,CLR,CLR,0.00,0.0,WeatherDisplay:10.37,2013-01-23 07:10:00,
2013-01-23 02:15:00,22.8,8.2,30.32,ESE,105,0.0,0.0,53,0.00,CLR,CLR,0.00,0.0,WeatherDisplay:10.37,2013-01-23 07:15:00,
2013-01-23 02:20:00,22.7,8.5,30.33,ESE,105,0.0,0.0,54,0.00,CLR,CLR,0.00,0.0,WeatherDisplay:10.37,2013-01-23 07:20:00,
2013-01-23 02:30:00,22.6,8.4,30.33,ESE,105,0.0,0.0,54,0.00,CLR,CLR,0.00,0.0,WeatherDisplay:10.37,2013-01-23 07:30:00,
2013-01-23 02:35:00,22.5,7.5,30.33,ESE,105,0.0,0.0,52,0.00,CLR,CLR,0.00,0.0,WeatherDisplay:10.37,2013-01-23 07:35:00,
2013-01-23 02:45:00,21.7,9.6,30.33,ESE,105,0.0,0.0,59,0.00,CLR,CLR,0.00,0.0,WeatherDisplay:10.37,2013-01-23 07:45:00,
2013-01-23 02:50:00,21.4,8.9,30.33,NE,51,0.0,3.0,58,0.00,CLR,CLR,0.00,0.0,WeatherDisplay:10.37,2013-01-23 07:50:00,
2013-01-23 02:55:00,21.2,8.3,30.33,NNW,342,0.0,0.0,57,0.00,CLR,CLR,0.00,0.0,WeatherDisplay:10.37,2013-01-23 07:55:00,
2013-01-23 03:00:00,21.1,9.0,30.33,NNW,334,0.0,1.0,59,0.00,CLR,CLR,0.00,0.0,WeatherDisplay:10.37,2013-01-23 08:00:00,
2013-01-23 03:10:00,20.8,9.1,30.33,NNW,334,0.0,1.0,60,0.00,CLR,CLR,0.00,0.0,WeatherDisplay:10.37,2013-01-23 08:10:00,
2013-01-23 03:15:00,20.6,8.1,30.33,NNW,334,0.0,0.0,58,0.00,CLR,CLR,0.00,0.0,WeatherDisplay:10.37,2013-01-23 08:15:00,
2013-01-23 03:20:00,20.5,8.0,30.33,NNW,329,0.0,1.0,58,0.00,CLR,CLR,0.00,0.0,WeatherDisplay:10.37,2013-01-23 08:20:00,
2013-01-23 03:30:00,20.2,8.9,30.34,NW,318,0.0,0.0,61,0.00,CLR,CLR,0.00,0.0,WeatherDisplay:10.37,2013-01-23 08:30:00,
2013-01-23 03:35:00,20.0,8.3,30.34,NW,316,0.0,1.0,60,0.00,CLR,CLR,0.00,0.0,WeatherDisplay:10.37,2013-01-23 08:35:00,
2013-01-23 03:45:00,20.0,7.6,30.34,WNW,302,0.0,1.0,58,0.00,CLR,CLR,0.00,0.0,WeatherDisplay:10.37,2013-01-23 08:45:00,
2013-01-23 03:55:00,20.2,7.8,30.34,WNW,302,0.0,0.0,58,0.00,CLR,CLR,0.00,0.0,WeatherDisplay:10.37,2013-01-23 08:55:00,
2013-01-23 04:00:00,20.1,8.4,30.34,WNW,302,0.0,1.0,60,0.00,CLR,CLR,0.00,0.0,WeatherDisplay:10.37,2013-01-23 09:00:00,
2013-01-23 04:10:00,20.0,9.1,30.34,WNW,302,0.0,0.0,62,0.00,CLR,CLR,0.00,0.0,WeatherDisplay:10.37,2013-01-23 09:10:00,
2013-01-23 04:20:00,20.0,8.7,30.35,WNW,302,0.0,0.0,61,0.00,CLR,CLR,0.00,0.0,WeatherDisplay:10.37,2013-01-23 09:20:00,
2013-01-23 04:29:00,19.9,8.6,30.34,NW,304,0.0,0.0,61,0.00,CLR,CLR,0.00,0.0,WeatherDisplay:10.37,2013-01-23 09:29:00,
2013-01-23 04:35:00,19.7,7.7,30.34,NW,305,0.0,0.0,59,0.00,CLR,CLR,0.00,0.0,WeatherDisplay:10.37,2013-01-23 09:35:00,
2013-01-23 04:40:00,19.7,8.0,30.34,NW,304,0.0,1.0,60,0.00,CLR,CLR,0.00,0.0,WeatherDisplay:10.37,2013-01-23 09:40:00,
2013-01-23 04:50:00,19.2,8.3,30.34,NW,305,0.0,1.0,62,0.00,CLR,CLR,0.00,0.0,WeatherDisplay:10.37,2013-01-23 09:50:00,
2013-01-23 04:55:00,19.1,8.9,30.34,NW,305,0.0,0.0,64,0.00,CLR,CLR,0.00,0.0,WeatherDisplay:10.37,2013-01-23 09:55:00,
2013-01-23 05:00:00,18.9,8.4,30.34,NW,304,0.0,0.0,63,0.00,CLR,CLR,0.00,0.0,WeatherDisplay:10.37,2013-01-23 10:00:00,
2013-01-23 05:05:00,18.8,7.9,30.34,NW,305,0.0,0.0,62,0.00,CLR,CLR,0.00,0.0,WeatherDisplay:10.37,2013-01-23 10:05:00,
2013-01-23 05:10:00,18.8,8.3,30.34,NW,305,0.0,1.0,63,0.00,CLR,CLR,0.00,0.0,WeatherDisplay:10.37,2013-01-23 10:10:00,
2013-01-23 05:15:00,18.9,8.0,30.34,NW,305,0.0,1.0,62,0.00,CLR,CLR,0.00,0.0,WeatherDisplay:10.37,2013-01-23 10:15:00,
2013-01-23 05:20:00,19.0,8.4,30.34,NW,305,0.0,0.0,63,0.00,CLR,CLR,0.00,0.0,WeatherDisplay:10.37,2013-01-23 10:20:00,
2013-01-23 05:30:00,18.8,7.6,30.34,NW,305,0.0,1.0,61,0.00,CLR,CLR,0.00,0.0,WeatherDisplay:10.37,2013-01-23 10:30:00,
2013-01-23 05:35:00,18.6,8.1,30.34,NW,304,0.0,0.0,63,0.00,CLR,CLR,0.00,0.0,WeatherDisplay:10.37,2013-01-23 10:35:00,
2013-01-23 05:40:00,18.6,8.1,30.35,NW,304,0.0,0.0,63,0.00,CLR,CLR,0.00,0.0,WeatherDisplay:10.37,2013-01-23 10:40:00,
2013-01-23 05:50:00,18.7,8.5,30.35,NW,304,0.0,1.0,64,0.00,CLR,CLR,0.00,0.0,WeatherDisplay:10.37,2013-01-23 10:50:00,
2013-01-23 06:00:00,18.9,8.7,30.36,NW,304,0.0,0.0,64,0.00,CLR,CLR,0.00,0.0,WeatherDisplay:10.37,2013-01-23 11:00:00,
2013-01-23 06:05:00,19.1,8.9,30.35,NW,304,0.0,0.0,64,0.00,CLR,CLR,0.00,0.0,WeatherDisplay:10.37,2013-01-23 11:05:00,
2013-01-23 06:15:00,19.4,8.8,30.36,NW,304,0.0,0.0,63,0.00,CLR,CLR,0.00,0.0,WeatherDisplay:10.37,2013-01-23 11:15:00,
2013-01-23 06:20:00,19.7,8.7,30.36,NW,304,0.0,0.0,62,0.00,CLR,CLR,0.00,0.0,WeatherDisplay:10.37,2013-01-23 11:20:00,
2013-01-23 06:30:00,19.7,8.0,30.36,NW,304,0.0,0.0,60,0.00,CLR,CLR,0.00,0.0,WeatherDisplay:10.37,2013-01-23 11:30:00,
2013-01-23 06:35:00,19.7,8.4,30.36,NW,305,0.0,0.0,61,0.00,CLR,CLR,0.00,0.0,WeatherDisplay:10.37,2013-01-23 11:35:00,
2013-01-23 06:40:00,19.7,8.4,30.36,NW,304,0.0,0.0,61,0.00,CLR,CLR,0.00,0.0,WeatherDisplay:10.37,2013-01-23 11:40:00,
2013-01-23 06:50:00,19.4,8.8,30.37,NW,304,0.0,0.0,63,0.00,CLR,CLR,0.00,0.0,WeatherDisplay:10.37,2013-01-23 11:50:00,
2013-01-23 06:55:00,19.2,8.0,30.37,NW,304,0.0,0.0,61,0.00,CLR,CLR,0.00,0.0,WeatherDisplay:10.37,2013-01-23 11:55:00,
2013-01-23 07:00:00,19.0,8.5,30.37,NW,304,0.0,0.0,63,0.00,CLR,CLR,0.00,0.0,WeatherDisplay:10.37,2013-01-23 12:00:00,
2013-01-23 07:10:00,18.5,7.3,30.37,NW,304,0.0,0.0,61,0.00,OVC,OVC,0.00,0.0,WeatherDisplay:10.37,2013-01-23 12:10:00,
2013-01-23 07:20:00,18.0,7.9,30.38,NW,304,0.0,0.0,64,0.00,OVC,OVC,0.00,0.0,WeatherDisplay:10.37,2013-01-23 12:20:00,
2013-01-23 07:30:00,17.7,7.9,30.38,NW,304,0.0,0.0,65,0.00,OVC,OVC,0.00,0.0,WeatherDisplay:10.37,2013-01-23 12:30:00,
2013-01-23 07:35:00,17.5,7.7,30.38,NW,304,0.0,0.0,65,0.00,OVC,OVC,0.00,0.0,WeatherDisplay:10.37,2013-01-23 12:35:00,
2013-01-23 07:40:00,17.4,8.0,30.38,NW,304,0.0,0.0,66,0.00,CLR,CLR,0.00,7.0,WeatherDisplay:10.37,2013-01-23 12:40:00,
2013-01-23 07:45:00,17.3,7.5,30.39,NW,304,0.0,0.0,65,0.00,BKN,BKN,0.00,9.0,WeatherDisplay:10.37,2013-01-23 12:45:00,
2013-01-23 07:55:00,17.3,8.5,30.38,NW,304,0.0,0.0,68,0.00,OVC,OVC,0.00,9.0,WeatherDisplay:10.37,2013-01-23 12:55:00,
2013-01-23 08:04:00,17.3,8.9,30.38,NW,304,0.0,0.0,69,0.00,BKN,BKN,0.00,25.0,WeatherDisplay:10.37,2013-01-23 13:04:00,
2013-01-23 08:10:00,17.4,9.3,30.38,NW,304,0.0,0.0,70,0.00,SCT,SCT,0.00,47.0,WeatherDisplay:10.37,2013-01-23 13:10:00,
2013-01-23 08:15:00,17.9,9.7,30.39,NW,304,0.0,0.0,70,0.00,FEW,FEW,0.00,69.0,WeatherDisplay:10.37,2013-01-23 13:15:00,
2013-01-23 08:20:00,18.6,9.8,30.39,NW,304,0.0,0.0,68,0.00,FEW,FEW,0.00,84.0,WeatherDisplay:10.37,2013-01-23 13:20:00,
2013-01-23 08:29:00,20.2,10.6,30.39,NW,305,0.0,0.0,66,0.00,CLR,CLR,0.00,120.0,WeatherDisplay:10.37,2013-01-23 13:29:00,
2013-01-23 08:35:00,20.9,10.6,30.38,NW,305,0.0,0.0,64,0.00,CLR,CLR,0.00,141.0,WeatherDisplay:10.37,2013-01-23 13:35:00,
2013-01-23 08:40:00,21.3,10.7,30.38,NW,305,0.0,0.0,63,0.00,CLR,CLR,0.00,165.0,WeatherDisplay:10.37,2013-01-23 13:40:00,
2013-01-23 08:45:00,21.9,11.3,30.39,NW,305,0.0,0.0,63,0.00,CLR,CLR,0.00,178.0,WeatherDisplay:10.37,2013-01-23 13:45:00,
2013-01-23 08:50:00,22.8,12.1,30.39,NW,305,0.0,0.0,63,0.00,CLR,CLR,0.00,209.0,WeatherDisplay:10.37,2013-01-23 13:50:00,
2013-01-23 09:00:00,23.8,12.7,30.39,NW,304,0.0,1.0,62,0.00,CLR,CLR,0.00,234.0,WeatherDisplay:10.37,2013-01-23 14:00:00,
2013-01-23 09:05:00,24.4,13.3,30.39,NW,305,0.0,0.0,62,0.00,CLR,CLR,0.00,241.0,WeatherDisplay:10.37,2013-01-23 14:05:00,
2013-01-23 09:10:00,25.3,14.1,30.39,West,268,1.0,3.0,62,0.00,CLR,CLR,0.00,262.0,WeatherDisplay:10.37,2013-01-23 14:10:00,
2013-01-23 09:20:00,27.0,15.4,30.39,SW,221,3.0,7.0,61,0.00,CLR,CLR,0.00,283.0,WeatherDisplay:10.37,2013-01-23 14:20:00,
2013-01-23 09:25:00,27.8,16.5,30.39,SW,225,6.0,12.0,62,0.00,CLR,CLR,0.00,288.0,WeatherDisplay:10.37,2013-01-23 14:25:00,
2013-01-23 09:35:00,29.0,17.2,30.39,WSW,242,7.0,14.0,61,0.00,CLR,CLR,0.00,325.0,WeatherDisplay:10.37,2013-01-23 14:35:00,
2013-01-23 09:40:00,29.3,17.5,30.39,WSW,245,6.0,12.0,61,0.00,CLR,CLR,0.00,336.0,WeatherDisplay:10.37,2013-01-23 14:40:00,
2013-01-23 09:50:00,29.9,18.5,30.39,WSW,248,6.0,20.0,62,0.00,CLR,CLR,0.00,357.0,WeatherDisplay:10.37,2013-01-23 14:50:00,
2013-01-23 09:55:00,30.2,18.3,30.39,WSW,249,2.0,15.0,61,0.00,CLR,CLR,0.00,374.0,WeatherDisplay:10.37,2013-01-23 14:55:00,
2013-01-23 10:04:00,30.6,18.8,30.39,WSW,245,7.0,15.0,61,0.00,CLR,CLR,0.00,399.0,WeatherDisplay:10.37,2013-01-23 15:04:00,
2013-01-23 10:10:00,30.9,19.0,30.39,WSW,240,8.0,18.0,61,0.00,CLR,CLR,0.00,413.0,WeatherDisplay:10.37,2013-01-23 15:10:00,
2013-01-23 10:20:00,31.2,18.9,30.40,WSW,251,10.0,18.0,60,0.00,CLR,CLR,0.00,434.0,WeatherDisplay:10.37,2013-01-23 15:20:00,
2013-01-23 10:25:00,31.5,19.2,30.40,WSW,249,9.0,17.0,60,0.00,CLR,CLR,0.00,446.0,WeatherDisplay:10.37,2013-01-23 15:25:00,
2013-01-23 10:30:00,31.6,19.3,30.40,WSW,248,7.0,17.0,60,0.00,CLR,CLR,0.00,459.0,WeatherDisplay:10.37,2013-01-23 15:30:00,
2013-01-23 10:39:00,32.3,19.6,30.40,WSW,249,14.0,20.0,59,0.00,CLR,CLR,0.00,483.0,WeatherDisplay:10.37,2013-01-23 15:39:00,
2013-01-23 10:45:00,32.6,19.4,30.40,WSW,253,10.0,18.0,58,0.00,CLR,CLR,0.00,496.0,WeatherDisplay:10.37,2013-01-23 15:45:00,
2013-01-23 10:50:00,33.0,19.8,30.40,WSW,248,14.0,20.0,58,0.00,CLR,CLR,0.00,497.0,WeatherDisplay:10.37,2013-01-23 15:50:00,
2013-01-23 10:59:00,33.6,20.4,30.40,WSW,250,9.0,21.0,58,0.00,CLR,CLR,0.00,519.0,WeatherDisplay:10.37,2013-01-23 15:59:00,
2013-01-23 11:04:00,34.1,20.8,30.40,WSW,246,8.0,21.0,58,0.00,CLR,CLR,0.00,515.0,WeatherDisplay:10.37,2013-01-23 16:04:00,
2013-01-23 11:10:00,34.2,20.5,30.40,WSW,248,13.0,16.0,57,0.00,CLR,CLR,0.00,527.0,WeatherDisplay:10.37,2013-01-23 16:10:00,
2013-01-23 11:19:00,34.4,20.3,30.40,WSW,245,12.0,20.0,56,0.00,CLR,CLR,0.00,541.0,WeatherDisplay:10.37,2013-01-23 16:19:00,
2013-01-23 11:25:00,34.6,20.5,30.39,WSW,245,15.0,22.0,56,0.00,CLR,CLR,0.00,550.0,WeatherDisplay:10.37,2013-01-23 16:25:00,
2013-01-23 11:30:00,35.0,20.9,30.39,WSW,255,9.0,23.0,56,0.00,CLR,CLR,0.00,554.0,WeatherDisplay:10.37,2013-01-23 16:30:00,
2013-01-23 11:35:00,35.2,20.6,30.39,WSW,251,13.0,21.0,55,0.00,CLR,CLR,0.00,559.0,WeatherDisplay:10.37,2013-01-23 16:35:00,
2013-01-23 11:40:00,35.3,20.7,30.39,WSW,246,12.0,25.0,55,0.00,CLR,CLR,0.00,563.0,WeatherDisplay:10.37,2013-01-23 16:40:00,
2013-01-23 11:49:00,35.8,20.8,30.38,WSW,246,16.0,26.0,54,0.00,CLR,CLR,0.00,570.0,WeatherDisplay:10.37,2013-01-23 16:49:00,
2013-01-23 11:55:00,35.9,20.8,30.38,WSW,257,14.0,29.0,54,0.00,CLR,CLR,0.00,577.0,WeatherDisplay:10.37,2013-01-23 16:55:00,
2013-01-23 12:04:00,36.5,21.4,30.37,WSW,255,15.0,27.0,54,0.00,CLR,CLR,0.00,580.0,WeatherDisplay:10.37,2013-01-23 17:04:00,
2013-01-23 12:10:00,36.7,21.6,30.37,WSW,253,16.0,24.0,54,0.00,CLR,CLR,0.00,584.0,WeatherDisplay:10.37,2013-01-23 17:10:00,
2013-01-23 12:15:00,37.1,21.5,30.37,WSW,254,12.0,23.0,53,0.00,CLR,CLR,0.00,585.0,WeatherDisplay:10.37,2013-01-23 17:15:00,
2013-01-23 12:19:00,37.3,21.7,30.36,West,266,10.0,20.0,53,0.00,CLR,CLR,0.00,585.0,WeatherDisplay:10.37,2013-01-23 17:19:00,
2013-01-23 12:25:00,37.5,21.9,30.36,West,259,9.0,18.0,53,0.00,CLR,CLR,0.00,587.0,WeatherDisplay:10.37,2013-01-23 17:25:00,
2013-01-23 12:35:00,38.6,22.5,30.35,West,261,3.0,8.0,52,0.00,CLR,CLR,0.00,589.0,WeatherDisplay:10.37,2013-01-23 17:35:00,
2013-01-23 12:45:00,38.8,22.7,30.34,WSW,247,5.0,14.0,52,0.00,CLR,CLR,0.00,589.0,WeatherDisplay:10.37,2013-01-23 17:45:00,
2013-01-23 12:50:00,39.0,22.8,30.33,WSW,253,8.0,16.0,52,0.00,CLR,CLR,0.00,587.0,WeatherDisplay:10.37,2013-01-23 17:50:00,
2013-01-23 12:55:00,39.6,22.9,30.33,West,260,12.0,20.0,51,0.00,CLR,CLR,0.00,587.0,WeatherDisplay:10.37,2013-01-23 17:55:00,
2013-01-23 13:05:00,39.0,23.3,30.33,WSW,246,12.0,23.0,53,0.00,CLR,CLR,0.00,575.0,WeatherDisplay:10.37,2013-01-23 18:05:00,
2013-01-23 13:14:00,39.1,23.4,30.32,WSW,253,9.0,21.0,53,0.00,CLR,CLR,0.00,578.0,WeatherDisplay:10.37,2013-01-23 18:14:00,
2013-01-23 13:20:00,39.3,23.6,30.31,WSW,245,6.0,13.0,53,0.00,CLR,CLR,0.00,575.0,WeatherDisplay:10.37,2013-01-23 18:20:00,
2013-01-23 13:30:00,40.1,23.9,30.31,WSW,258,9.0,14.0,52,0.00,CLR,CLR,0.00,566.0,WeatherDisplay:10.37,2013-01-23 18:30:00,
2013-01-23 13:35:00,40.7,24.4,30.30,WSW,239,8.0,18.0,52,0.00,CLR,CLR,0.00,557.0,WeatherDisplay:10.37,2013-01-23 18:35:00,
2013-01-23 13:45:00,40.6,23.9,30.30,WSW,245,14.0,21.0,51,0.00,CLR,CLR,0.00,541.0,WeatherDisplay:10.37,2013-01-23 18:45:00,
2013-01-23 13:50:00,40.6,24.3,30.31,WSW,251,12.0,20.0,52,0.00,CLR,CLR,0.00,540.0,WeatherDisplay:10.37,2013-01-23 18:50:00,
2013-01-23 13:55:00,40.8,24.5,30.30,West,259,6.0,20.0,52,0.00,CLR,CLR,0.00,536.0,WeatherDisplay:10.37,2013-01-23 18:55:00,
2013-01-23 14:00:00,41.2,24.9,30.30,West,262,6.0,16.0,52,0.00,CLR,CLR,0.00,531.0,WeatherDisplay:10.37,2013-01-23 19:00:00,
2013-01-23 14:04:00,41.7,24.4,30.30,WSW,253,6.0,15.0,50,0.00,CLR,CLR,0.00,527.0,WeatherDisplay:10.37,2013-01-23 19:04:00,
2013-01-23 14:10:00,42.0,24.7,30.29,WSW,248,9.0,16.0,50,0.00,CLR,CLR,0.00,519.0,WeatherDisplay:10.37,2013-01-23 19:10:00,
2013-01-23 14:20:00,42.4,24.5,30.29,WSW,239,10.0,16.0,49,0.00,CLR,CLR,0.00,499.0,WeatherDisplay:10.37,2013-01-23 19:20:00,
2013-01-23 14:25:00,42.4,24.1,30.29,WSW,243,10.0,15.0,48,0.00,CLR,CLR,0.00,492.0,WeatherDisplay:10.37,2013-01-23 19:25:00,
2013-01-23 14:35:00,42.7,24.3,30.29,WSW,249,8.0,18.0,48,0.00,CLR,CLR,0.00,473.0,WeatherDisplay:10.37,2013-01-23 19:35:00,
2013-01-23 14:39:00,43.0,24.1,30.28,WSW,247,9.0,16.0,47,0.00,CLR,CLR,0.00,461.0,WeatherDisplay:10.37,2013-01-23 19:39:00,
2013-01-23 14:45:00,42.9,24.5,30.28,WSW,246,8.0,21.0,48,0.00,CLR,CLR,0.00,450.0,WeatherDisplay:10.37,2013-01-23 19:45:00,
2013-01-23 14:50:00,43.0,24.1,30.28,WSW,245,7.0,18.0,47,0.00,CLR,CLR,0.00,439.0,WeatherDisplay:10.37,2013-01-23 19:50:00,
2013-01-23 15:00:00,43.3,23.9,30.29,WSW,252,8.0,20.0,46,0.00,CLR,CLR,0.00,418.0,WeatherDisplay:10.37,2013-01-23 20:00:00,
2013-01-23 15:10:00,43.6,24.7,30.28,WSW,253,12.0,21.0,47,0.00,CLR,CLR,0.00,403.0,WeatherDisplay:10.37,2013-01-23 20:10:00,
2013-01-23 15:20:00,43.9,24.4,30.28,WSW,249,10.0,18.0,46,0.00,CLR,CLR,0.00,367.0,WeatherDisplay:10.37,2013-01-23 20:20:00,
2013-01-23 15:25:00,43.9,24.4,30.28,WSW,250,14.0,22.0,46,0.00,CLR,CLR,0.00,364.0,WeatherDisplay:10.37,2013-01-23 20:25:00,
2013-01-23 15:30:00,44.2,24.7,30.28,WSW,243,10.0,16.0,46,0.00,CLR,CLR,0.00,355.0,WeatherDisplay:10.37,2013-01-23 20:30:00,
2013-01-23 15:40:00,44.3,24.2,30.27,WSW,258,9.0,17.0,45,0.00,CLR,CLR,0.00,341.0,WeatherDisplay:10.37,2013-01-23 20:40:00,
2013-01-23 15:45:00,44.4,24.4,30.27,WSW,258,9.0,16.0,45,0.00,CLR,CLR,0.00,322.0,WeatherDisplay:10.37,2013-01-23 20:45:00,
2013-01-23 15:54:00,45.0,24.3,30.26,WSW,254,6.0,14.0,44,0.00,CLR,CLR,0.00,267.0,WeatherDisplay:10.37,2013-01-23 20:54:00,
2013-01-23 15:59:00,45.0,24.9,30.27,WSW,256,5.0,12.0,45,0.00,CLR,CLR,0.00,267.0,WeatherDisplay:10.37,2013-01-23 20:59:00,
2013-01-23 16:04:00,45.0,24.4,30.26,WSW,248,7.0,13.0,44,0.00,CLR,CLR,0.00,262.0,WeatherDisplay:10.37,2013-01-23 21:04:00,
2013-01-23 16:10:00,44.9,24.3,30.27,WSW,256,7.0,14.0,44,0.00,SCT,SCT,0.00,179.0,WeatherDisplay:10.37,2013-01-23 21:10:00,
2013-01-23 16:15:00,44.8,24.2,30.27,WSW,245,8.0,12.0,44,0.00,CLR,CLR,0.00,229.0,WeatherDisplay:10.37,2013-01-23 21:15:00,
2013-01-23 16:20:00,44.9,24.3,30.27,WSW,239,9.0,13.0,44,0.00,CLR,CLR,0.00,204.0,WeatherDisplay:10.37,2013-01-23 21:20:00,
2013-01-23 16:25:00,44.8,24.2,30.27,SW,224,3.0,12.0,44,0.00,FEW,FEW,0.00,179.0,WeatherDisplay:10.37,2013-01-23 21:25:00,
2013-01-23 16:30:00,44.9,24.3,30.27,SW,226,5.0,12.0,44,0.00,SCT,SCT,0.00,135.0,WeatherDisplay:10.37,2013-01-23 21:30:00,
2013-01-23 16:39:00,44.5,24.5,30.26,WSW,244,5.0,12.0,45,0.00,FEW,FEW,0.00,137.0,WeatherDisplay:10.37,2013-01-23 21:39:00,
2013-01-23 16:45:00,44.5,24.5,30.26,WSW,244,6.0,15.0,45,0.00,FEW,FEW,0.00,118.0,WeatherDisplay:10.37,2013-01-23 21:45:00,
2013-01-23 16:50:00,44.5,24.5,30.26,SW,230,5.0,12.0,45,0.00,SCT,SCT,0.00,102.0,WeatherDisplay:10.37,2013-01-23 21:50:00,
2013-01-23 16:55:00,44.4,24.4,30.26,SW,234,6.0,13.0,45,0.00,SCT,SCT,0.00,84.0,WeatherDisplay:10.37,2013-01-23 21:55:00,
2013-01-23 17:05:00,44.3,24.3,30.26,WSW,241,5.0,12.0,45,0.00,BKN,BKN,0.00,54.0,WeatherDisplay:10.37,2013-01-23 22:05:00,
2013-01-23 17:15:00,44.1,24.1,30.26,WSW,254,7.0,12.0,45,0.00,BKN,BKN,0.00,33.0,WeatherDisplay:10.37,2013-01-23 22:15:00,
2013-01-23 17:24:00,43.7,24.3,30.26,SW,236,3.0,8.0,46,0.00,BKN,BKN,0.00,21.0,WeatherDisplay:10.37,2013-01-23 22:24:00,
2013-01-23 17:29:00,43.4,24.5,30.26,WSW,242,2.0,9.0,47,0.00,BKN,BKN,0.00,18.0,WeatherDisplay:10.37,2013-01-23 22:29:00,
2013-01-23 17:35:00,43.1,24.2,30.26,WSW,246,3.0,7.0,47,0.00,BKN,BKN,0.00,14.0,WeatherDisplay:10.37,2013-01-23 22:35:00,
2013-01-23 17:40:00,42.7,23.9,30.26,WSW,240,2.0,9.0,47,0.00,BKN,BKN,0.00,11.0,WeatherDisplay:10.37,2013-01-23 22:40:00,
2013-01-23 17:49:00,41.8,24.0,30.26,SW,228,5.0,7.0,49,0.00,OVC,OVC,0.00,5.0,WeatherDisplay:10.37,2013-01-23 22:49:00,
2013-01-23 17:54:00,41.8,24.0,30.26,WSW,242,2.0,10.0,49,0.00,OVC,OVC,0.00,0.0,WeatherDisplay:10.37,2013-01-23 22:54:00,
2013-01-23 18:00:00,41.5,24.2,30.26,WSW,240,0.0,5.0,50,0.00,CLR,CLR,0.00,0.0,WeatherDisplay:10.37,2013-01-23 23:00:00,
2013-01-23 18:05:00,41.0,24.3,30.26,SW,235,2.0,7.0,51,0.00,CLR,CLR,0.00,0.0,WeatherDisplay:10.37,2013-01-23 23:05:00,
2013-01-23 18:10:00,40.8,24.5,30.26,SW,234,2.0,6.0,52,0.00,CLR,CLR,0.00,0.0,WeatherDisplay:10.37,2013-01-23 23:10:00,
2013-01-23 18:20:00,40.2,24.0,30.26,SW,232,2.0,7.0,52,0.00,CLR,CLR,0.00,0.0,WeatherDisplay:10.37,2013-01-23 23:20:00,
2013-01-23 18:30:00,39.8,24.0,30.26,WSW,242,0.0,3.0,53,0.00,CLR,CLR,0.00,0.0,WeatherDisplay:10.37,2013-01-23 23:30:00,
2013-01-23 18:35:00,39.3,24.0,30.26,WSW,253,2.0,5.0,54,0.00,CLR,CLR,0.00,0.0,WeatherDisplay:10.37,2013-01-23 23:35:00,
2013-01-23 18:40:00,38.7,23.9,30.26,WSW,258,0.0,3.0,55,0.00,CLR,CLR,0.00,0.0,WeatherDisplay:10.37,2013-01-23 23:40:00,
2013-01-23 18:45:00,38.1,24.2,30.26,WSW,245,0.0,3.0,57,0.00,CLR,CLR,0.00,0.0,WeatherDisplay:10.37,2013-01-23 23:45:00,
2013-01-23 18:50:00,37.5,23.6,30.25,SW,225,0.0,4.0,57,0.00,CLR,CLR,0.00,0.0,WeatherDisplay:10.37,2013-01-23 23:50:00,
2013-01-23 19:00:00,36.6,23.6,30.25,SW,227,1.0,4.0,59,0.00,CLR,CLR,0.00,0.0,WeatherDisplay:10.37,2013-01-24 00:00:00,
2013-01-23 19:05:00,36.5,23.9,30.25,SW,230,0.0,3.0,60,0.00,CLR,CLR,0.00,0.0,WeatherDisplay:10.37,2013-01-24 00:05:00,
2013-01-23 19:10:00,36.4,23.8,30.24,SW,236,0.0,4.0,60,0.00,CLR,CLR,0.00,0.0,WeatherDisplay:10.37,2013-01-24 00:10:00,
2013-01-23 19:15:00,36.1,23.6,30.25,WSW,238,0.0,1.0,60,0.00,CLR,CLR,0.00,0.0,WeatherDisplay:10.37,2013-01-24 00:15:00,
2013-01-23 19:25:00,35.3,23.2,30.25,WSW,238,0.0,2.0,61,0.00,CLR,CLR,0.00,0.0,WeatherDisplay:10.37,2013-01-24 00:25:00,
2013-01-23 19:30:00,35.2,23.4,30.25,WSW,238,0.0,3.0,62,0.00,CLR,CLR,0.00,0.0,WeatherDisplay:10.37,2013-01-24 00:30:00,
2013-01-23 19:40:00,34.7,23.0,30.25,WSW,238,0.0,1.0,62,0.00,CLR,CLR,0.00,0.0,WeatherDisplay:10.37,2013-01-24 00:40:00,
2013-01-23 19:45:00,34.4,23.5,30.25,WSW,238,0.0,0.0,64,0.00,CLR,CLR,0.00,0.0,WeatherDisplay:10.37,2013-01-24 00:45:00,
2013-01-23 19:50:00,33.9,23.0,30.25,WSW,238,0.0,0.0,64,0.00,CLR,CLR,0.00,0.0,WeatherDisplay:10.37,2013-01-24 00:50:00,
2013-01-23 20:00:00,33.3,22.8,30.24,WSW,238,0.0,0.0,65,0.00,CLR,CLR,0.00,0.0,WeatherDisplay:10.37,2013-01-24 01:00:00,
2013-01-23 20:10:00,32.7,22.9,30.23,WSW,238,0.0,0.0,67,0.00,CLR,CLR,0.00,0.0,WeatherDisplay:10.37,2013-01-24 01:10:00,
2013-01-23 20:20:00,32.6,22.8,30.23,WSW,238,0.0,1.0,67,0.00,CLR,CLR,0.00,0.0,WeatherDisplay:10.37,2013-01-24 01:20:00,
2013-01-23 20:25:00,32.8,22.7,30.24,WSW,244,0.0,3.0,66,0.00,CLR,CLR,0.00,0.0,WeatherDisplay:10.37,2013-01-24 01:25:00,
2013-01-23 20:30:00,33.1,23.0,30.24,WSW,255,0.0,3.0,66,0.00,CLR,CLR,0.00,0.0,WeatherDisplay:10.37,2013-01-24 01:30:00,
2013-01-23 20:35:00,33.0,22.9,30.24,West,259,0.0,1.0,66,0.00,CLR,CLR,0.00,0.0,WeatherDisplay:10.37,2013-01-24 01:35:00,
2013-01-23 20:40:00,32.9,22.8,30.24,WSW,258,0.0,3.0,66,0.00,CLR,CLR,0.00,0.0,WeatherDisplay:10.37,2013-01-24 01:40:00,
2013-01-23 20:49:00,33.5,23.0,30.24,SW,232,0.0,5.0,65,0.00,CLR,CLR,0.00,0.0,WeatherDisplay:10.37,2013-01-24 01:49:00,
2013-01-23 20:55:00,34.0,22.7,30.23,WSW,248,1.0,6.0,63,0.00,CLR,CLR,0.00,0.0,WeatherDisplay:10.37,2013-01-24 01:55:00,
2013-01-23 21:00:00,35.2,23.1,30.23,WSW,243,6.0,12.0,61,0.00,CLR,CLR,0.00,0.0,WeatherDisplay:10.37,2013-01-24 02:00:00,
2013-01-23 21:05:00,36.2,23.3,30.23,WSW,240,7.0,15.0,59,0.00,CLR,CLR,0.00,0.0,WeatherDisplay:10.37,2013-01-24 02:05:00,
2013-01-23 21:14:00,37.2,23.3,30.22,WSW,249,5.0,14.0,57,0.00,CLR,CLR,0.00,0.0,WeatherDisplay:10.37,2013-01-24 02:14:00,
2013-01-23 21:20:00,37.3,23.5,30.23,WSW,250,7.0,20.0,57,0.00,CLR,CLR,0.00,0.0,WeatherDisplay:10.37,2013-01-24 02:20:00,
2013-01-23 21:25:00,37.2,23.4,30.22,WSW,244,3.0,13.0,57,0.00,CLR,CLR,0.00,0.0,WeatherDisplay:10.37,2013-01-24 02:25:00,
2013-01-23 21:30:00,37.3,23.5,30.23,SW,234,12.0,16.0,57,0.00,CLR,CLR,0.00,0.0,WeatherDisplay:10.37,2013-01-24 02:30:00,
2013-01-23 21:35:00,37.2,23.4,30.22,SW,235,5.0,12.0,57,0.00,CLR,CLR,0.00,0.0,WeatherDisplay:10.37,2013-01-24 02:35:00,
2013-01-23 21:40:00,37.1,23.7,30.22,WSW,241,6.0,12.0,58,0.00,CLR,CLR,0.00,0.0,WeatherDisplay:10.37,2013-01-24 02:40:00,
2013-01-23 21:45:00,37.2,23.7,30.21,WSW,251,1.0,14.0,58,0.00,CLR,CLR,0.00,0.0,WeatherDisplay:10.37,2013-01-24 02:45:00,
2013-01-23 21:50:00,37.1,24.1,30.21,WSW,244,3.0,12.0,59,0.00,CLR,CLR,0.00,0.0,WeatherDisplay:10.37,2013-01-24 02:50:00,
2013-01-23 21:55:00,37.1,24.0,30.21,SW,231,6.0,10.0,59,0.00,CLR,CLR,0.00,0.0,WeatherDisplay:10.37,2013-01-24 02:55:00,
2013-01-23 22:05:00,37.1,24.5,30.20,WSW,237,2.0,12.0,60,0.00,CLR,CLR,0.00,0.0,WeatherDisplay:10.37,2013-01-24 03:05:00,
2013-01-23 22:10:00,37.3,24.7,30.21,WSW,240,3.0,14.0,60,0.00,CLR,CLR,0.00,0.0,WeatherDisplay:10.37,2013-01-24 03:10:00,
2013-01-23 22:20:00,37.3,25.1,30.20,WSW,243,8.0,13.0,61,0.00,CLR,CLR,0.00,0.0,WeatherDisplay:10.37,2013-01-24 03:20:00,
2013-01-23 22:30:00,37.9,25.6,30.20,WSW,243,3.0,23.0,61,0.00,CLR,CLR,0.00,0.0,WeatherDisplay:10.37,2013-01-24 03:30:00,
2013-01-23 22:40:00,37.3,25.5,30.20,SW,236,7.0,12.0,62,0.00,CLR,CLR,0.00,0.0,WeatherDisplay:10.37,2013-01-24 03:40:00,
2013-01-23 22:50:00,37.8,26.3,30.19,WSW,241,7.0,15.0,63,0.00,CLR,CLR,0.00,0.0,WeatherDisplay:10.37,2013-01-24 03:50:00,
2013-01-23 23:00:00,37.8,26.0,30.19,WSW,243,6.0,14.0,62,0.00,CLR,CLR,0.00,0.0,WeatherDisplay:10.37,2013-01-24 04:00:00,
2013-01-23 23:05:00,37.7,26.2,30.19,WSW,240,5.0,12.0,63,0.00,CLR,CLR,0.00,0.0,WeatherDisplay:10.37,2013-01-24 04:05:00,
2013-01-23 23:10:00,37.9,26.4,30.18,WSW,245,3.0,13.0,63,0.00,CLR,CLR,0.00,0.0,WeatherDisplay:10.37,2013-01-24 04:10:00,
2013-01-23 23:20:00,38.3,26.8,30.17,WSW,245,7.0,16.0,63,0.00,CLR,CLR,0.00,0.0,WeatherDisplay:10.37,2013-01-24 04:20:00,
2013-01-23 23:29:00,38.7,27.2,30.17,WSW,249,3.0,14.0,63,0.00,CLR,CLR,0.00,0.0,WeatherDisplay:10.37,2013-01-24 04:29:00,
2013-01-23 23:34:00,39.1,27.9,30.17,WSW,253,10.0,21.0,64,0.00,CLR,CLR,0.00,0.0,WeatherDisplay:10.37,2013-01-24 04:34:00,
2013-01-23 23:40:00,39.4,27.8,30.17,WSW,252,7.0,17.0,63,0.00,CLR,CLR,0.00,0.0,WeatherDisplay:10.37,2013-01-24 04:40:00,
2013-01-23 23:45:00,39.6,28.0,30.17,WSW,253,8.0,21.0,63,0.00,CLR,CLR,0.00,0.0,WeatherDisplay:10.37,2013-01-24 04:45:00,
2013-01-23 23:50:00,40.0,28.4,30.17,WSW,255,12.0,23.0,63,0.00,CLR,CLR,0.00,0.0,WeatherDisplay:10.37,2013-01-24 04:50:00,
2013-01-23 23:55:00,39.9,28.3,30.16,WSW,256,6.0,15.0,63,0.00,CLR,CLR,0.00,0.0,WeatherDisplay:10.37,2013-01-24 04:55:00,